Date String (YYYY-MM-DD hh:mm:ss) UTC,Instrument flags,absolute air pressure of the measurement (hPa),sample flow rate (lpm),inlet stack bypass flow (lpm),air temperature of the measurement (°C),ambient temperature measured by the external sensor (°C),aerosol sample conditioner tube jacket temperature (°C),OPC LED temperature (°C),internal box temperature (°C),relative humidity of the measurement (%),span deviation,mass concentration of particles derived from Lorenz-Mie calculation of OPC scattering (μg/m³),mass concentration of particles derived from Lorenz-Mie calculation of OPC scattering (μg/m³),mass concentration of particles derived from Lorenz-Mie calculation of OPC scattering (μg/m³)
DateTimeUTC,F1_M11,P_M11,Q1_M11,Q2_M11,T1_M11,T2_M11,T3_M11,T4_M11,T5_M11,U1_M11,ZSPAN_M11,X0_M11,X2_M11,X1_M11
2023-08-02 00:00:00,SystemResetWarning,0836.8,5.00,000.00,030.1,025.9,000.0,038.3,031.0,33.3,0000.0,0007.67,0003.49,0002.61
2023-08-02 00:01:00,SystemResetWarning,0836.8,5.00,000.00,030.0,025.1,000.0,038.2,030.7,33.9,0000.0,0007.68,0003.47,0002.55
2023-08-02 00:02:00,SystemResetWarning,0836.8,5.00,000.00,029.8,025.1,000.0,038.2,030.4,34.5,0000.0,0007.67,0003.45,0002.49
2023-08-02 00:03:00,SystemResetWarning,0836.8,5.01,000.00,029.7,025.5,000.0,038.2,030.4,34.1,0000.0,0007.63,0003.42,0002.43
2023-08-02 00:04:00,SystemResetWarning,0836.8,5.00,000.00,029.7,025.9,000.0,038.2,030.5,34.2,0000.0,0007.67,0003.41,0002.38
2023-08-02 00:05:00,SystemResetWarning,0836.8,4.97,000.00,029.6,026.3,000.0,038.2,030.6,35.2,0000.0,0007.67,0003.39,0002.33
2023-08-02 00:06:00,SystemResetWarning,0836.8,5.04,000.00,029.7,026.6,000.0,038.2,030.7,35.1,0000.0,0007.83,0003.38,0002.30
2023-08-02 00:07:00,SystemResetWarning,0836.8,4.97,000.00,030.0,026.8,000.0,038.2,030.8,34.6,0000.0,0008.11,0003.37,0002.29
2023-08-02 00:08:00,SystemResetWarning,0836.8,5.01,000.00,030.1,027.1,000.0,038.2,030.9,34.2,0000.0,0008.06,0003.39,0002.32
2023-08-02 00:09:00,SystemResetWarning,0836.8,5.01,000.00,030.2,027.2,000.0,038.2,030.9,34.3,0000.0,0007.46,0003.36,0002.35
2023-08-02 00:10:00,SystemResetWarning,0836.8,4.99,000.00,030.3,027.4,000.0,038.2,030.9,34.2,0000.0,0007.42,0003.33,0002.38
2023-08-02 00:11:00,SystemResetWarning,0836.8,4.99,000.00,030.3,027.6,000.0,038.2,031.0,34.2,0000.0,0007.68,0003.33,0002.41
2023-08-02 00:12:00,SystemResetWarning,0836.9,5.00,000.00,030.3,027.7,000.0,038.3,031.0,34.2,0000.0,0007.97,0003.30,0002.42
2023-08-02 00:13:00,SystemResetWarning,0836.9,5.00,000.00,030.4,027.8,000.0,038.3,031.0,34.4,0000.0,0007.85,0003.27,0002.41
2023-08-02 00:14:00,SystemResetWarning,0836.9,5.00,000.00,030.4,027.9,000.0,038.4,031.1,34.8,0000.0,0007.89,0003.31,0002.43
2023-08-02 00:15:00,SystemResetWarning,0836.8,4.99,000.00,030.4,027.9,000.0,038.4,031.1,35.3,0000.0,0007.88,0003.33,0002.43
2023-08-02 00:16:00,SystemResetWarning,0836.8,5.04,000.00,030.6,028.0,000.0,038.5,031.3,35.1,0000.0,0007.89,0003.33,0002.40
2023-08-02 00:17:00,SystemResetWarning,0836.9,4.96,000.00,030.8,028.1,000.0,038.5,031.4,34.7,0000.0,0007.72,0003.29,0002.35
2023-08-02 00:18:00,SystemResetWarning,0836.9,5.02,000.00,031.0,028.1,000.0,038.5,031.4,34.3,0000.0,0007.37,0003.29,0002.31
2023-08-02 00:19:00,SystemResetWarning,0836.8,5.00,000.00,031.1,028.2,000.0,038.6,031.4,33.8,0000.0,0007.15,0003.22,0002.27
2023-08-02 00:20:00,SystemResetWarning,0836.8,4.99,000.00,031.1,027.4,000.0,038.6,031.4,33.5,0000.0,0006.98,0003.18,0002.22
2023-08-02 00:21:00,SystemResetWarning,0836.7,5.00,000.00,031.1,025.8,000.0,038.5,031.1,33.3,0000.0,0006.72,0003.16,0002.19
2023-08-02 00:22:00,SystemResetWarning,0836.8,5.00,000.00,031.1,025.2,000.0,038.5,030.9,33.4,0000.0,0006.10,0003.14,0002.14
2023-08-02 00:23:00,SystemResetWarning,0836.8,5.01,000.00,030.9,025.3,000.0,038.6,030.6,34.1,0000.0,0005.43,0003.12,0002.11
2023-08-02 00:24:00,SystemResetWarning,0836.8,5.01,000.00,030.8,025.7,000.0,038.7,030.7,34.2,0000.0,0005.33,0003.09,0002.09
2023-08-02 00:25:00,SystemResetWarning,0836.8,5.00,000.00,030.7,026.1,000.0,038.7,030.8,34.2,0000.0,0004.99,0002.97,0002.05
2023-08-02 00:26:00,SystemResetWarning,0836.8,4.99,000.00,030.7,026.5,000.0,038.7,030.8,34.1,0000.0,0004.74,0002.86,0002.02
2023-08-02 00:27:00,SystemResetWarning,0836.7,5.00,000.00,030.6,026.8,000.0,038.7,030.9,34.0,0000.0,0004.61,0002.82,0002.01
2023-08-02 00:28:00,SystemResetWarning,0836.8,5.00,000.00,030.6,027.0,000.0,038.7,030.9,34.1,0000.0,0004.55,0002.79,0002.00
2023-08-02 00:29:00,SystemResetWarning,0836.7,5.00,000.00,030.6,027.3,000.0,038.7,031.0,34.2,0000.0,0004.50,0002.76,0001.99
2023-08-02 00:30:00,SystemResetWarning,0836.7,5.00,000.00,030.6,027.5,000.0,038.7,031.0,34.3,0000.0,0004.74,0002.78,0002.00
2023-08-02 00:31:00,SystemResetWarning,0836.6,5.00,000.00,030.6,027.6,000.0,038.7,031.1,34.5,0000.0,0005.32,0002.84,0002.00
2023-08-02 00:32:00,SystemResetWarning,0836.6,5.00,000.00,030.5,027.7,000.0,038.7,031.1,34.5,0000.0,0005.33,0002.85,0002.01
2023-08-02 00:33:00,SystemResetWarning,0836.6,5.00,000.00,030.5,027.8,000.0,038.7,031.1,34.4,0000.0,0005.33,0002.85,0002.01
2023-08-02 00:34:00,SystemResetWarning,0836.5,5.00,000.00,030.5,027.9,000.0,038.7,031.2,34.3,0000.0,0005.25,0002.86,0002.02
2023-08-02 00:35:00,SystemResetWarning,0836.5,5.00,000.00,030.5,028.0,000.0,038.7,031.2,34.2,0000.0,0005.20,0002.87,0002.03
2023-08-02 00:36:00,SystemResetWarning,0836.5,5.00,000.00,030.5,028.1,000.0,038.7,031.2,34.3,0000.0,0005.30,0002.90,0002.02
2023-08-02 00:37:00,SystemResetWarning,0836.4,5.01,000.00,030.5,028.1,000.0,038.7,031.3,34.2,0000.0,0005.47,0002.96,0002.04
2023-08-02 00:38:00,SystemResetWarning,0836.4,4.98,000.00,030.5,028.2,000.0,038.7,031.3,34.2,0000.0,0005.45,0002.96,0002.06
2023-08-02 00:39:00,SystemResetWarning,0836.3,4.99,000.00,030.5,028.2,000.0,038.7,031.3,34.3,0000.0,0005.55,0002.98,0002.06
2023-08-02 00:40:00,SystemResetWarning,0836.3,5.00,000.00,030.5,027.0,000.0,038.6,031.2,34.3,0000.0,0005.51,0002.96,0002.06
2023-08-02 00:41:00,SystemResetWarning,0836.2,5.00,000.00,030.4,025.6,000.0,038.5,031.0,33.9,0000.0,0005.26,0002.93,0002.04
2023-08-02 00:42:00,SystemResetWarning,0836.2,5.01,000.00,030.3,025.2,000.0,038.4,030.7,34.1,0000.0,0004.74,0002.89,0002.04
2023-08-02 00:43:00,SystemResetWarning,0836.1,5.01,000.00,030.1,025.4,000.0,038.5,030.6,34.6,0000.0,0004.80,0002.92,0002.04
2023-08-02 00:44:00,SystemResetWarning,0836.1,4.99,000.00,030.0,025.8,000.0,038.4,030.6,34.4,0000.0,0004.75,0002.91,0002.05
2023-08-02 00:45:00,SystemResetWarning,0836.1,4.99,000.00,030.0,026.2,000.0,038.4,030.7,34.6,0000.0,0004.70,0002.89,0002.03
2023-08-02 00:46:00,SystemResetWarning,0836.0,4.99,000.00,030.0,026.5,000.0,038.4,030.7,34.9,0000.0,0004.60,0002.86,0002.03
2023-08-02 00:47:00,SystemResetWarning,0835.9,5.01,000.00,029.9,026.8,000.0,038.4,030.8,34.7,0000.0,0004.50,0002.83,0002.03
2023-08-02 00:48:00,SystemResetWarning,0835.9,4.99,000.00,029.9,027.0,000.0,038.4,030.8,35.0,0000.0,0004.33,0002.77,0002.02
2023-08-02 00:49:00,SystemResetWarning,0835.9,5.02,000.00,030.0,027.2,000.0,038.4,030.8,34.8,0000.0,0004.36,0002.77,0002.01
2023-08-02 00:50:00,SystemResetWarning,0835.8,4.98,000.00,030.0,027.4,000.0,038.3,030.9,34.7,0000.0,0004.34,0002.78,0002.04
2023-08-02 00:51:00,SystemResetWarning,0835.8,5.00,000.00,030.1,027.5,000.0,038.3,030.9,34.6,0000.0,0004.46,0002.84,0002.06
2023-08-02 00:52:00,SystemResetWarning,0835.8,5.01,000.00,030.1,027.6,000.0,038.3,031.0,34.4,0000.0,0004.43,0002.85,0002.09
2023-08-02 00:53:00,SystemResetWarning,0835.7,5.01,000.00,030.1,027.7,000.0,038.3,031.0,34.4,0000.0,0004.39,0002.86,0002.12
2023-08-02 00:54:00,SystemResetWarning,0835.6,4.99,000.00,030.1,027.8,000.0,038.4,031.0,34.7,0000.0,0004.43,0002.89,0002.15
2023-08-02 00:55:00,SystemResetWarning,0835.6,5.00,000.00,030.1,027.9,000.0,038.4,031.1,34.5,0000.0,0004.60,0002.96,0002.18
2023-08-02 00:56:00,SystemResetWarning,0835.5,5.01,000.00,030.1,028.0,000.0,038.4,031.1,34.1,0000.0,0004.87,0003.08,0002.25
2023-08-02 00:57:00,SystemResetWarning,0835.5,5.00,000.00,030.1,028.0,000.0,038.4,031.1,34.2,0000.0,0005.10,0003.15,0002.30
2023-08-02 00:58:00,SystemResetWarning,0835.5,5.01,000.00,030.1,028.1,000.0,038.4,031.1,34.2,0000.0,0005.16,0003.18,0002.35
2023-08-02 00:59:00,SystemResetWarning,0835.5,5.00,000.00,030.1,028.1,000.0,038.4,031.2,34.3,0000.0,0005.35,0003.24,0002.41
